#datetime,building,power
2022-11-14T00:00:00,cen,8.40
2022-11-14T00:02:00,cen,7.20
2022-11-14T00:03:00,cen,4.80
2022-11-14T00:05:00,cen,7.20
2022-11-14T00:07:00,cen,7.20
2022-11-14T00:09:00,cen,8.40
2022-11-14T00:10:00,cen,2.40
2022-11-14T00:12:00,cen,8.40
2022-11-14T00:13:00,cen,4.80
2022-11-14T00:15:00,cen,9.60
2022-11-14T00:17:00,cen,8.40
2022-11-14T00:18:00,cen,3.60
2022-11-14T00:20:00,cen,8.39
2022-11-14T00:22:00,cen,9.60
2022-11-14T00:24:00,cen,9.60
2022-11-14T00:26:00,cen,8.40
2022-11-14T00:28:00,cen,8.40
2022-11-14T00:30:00,cen,8.40
2022-11-14T00:32:00,cen,7.20
2022-11-14T00:34:00,cen,8.39
2022-11-14T00:36:00,cen,9.60
2022-11-14T00:38:00,cen,9.60
2022-11-14T00:40:00,cen,7.20
2022-11-14T00:42:00,cen,8.40
2022-11-14T00:44:00,cen,25.20
2022-11-14T00:45:00,cen,25.20
2022-11-14T00:46:00,cen,12.00
2022-11-14T00:47:00,cen,24.00
2022-11-14T00:48:00,cen,4.80
2022-11-14T00:50:00,cen,8.40
2022-11-14T00:51:00,cen,3.60
2022-11-14T00:53:00,cen,8.40
2022-11-14T00:54:00,cen,4.80
2022-11-14T00:56:00,cen,9.59
2022-11-14T00:57:00,cen,6.01
2022-11-14T00:59:00,cen,7.20
2022-11-14T01:01:00,cen,7.20
2022-11-14T01:03:00,cen,7.20
2022-11-14T01:05:00,cen,8.40
2022-11-14T01:07:00,cen,8.39
2022-11-14T01:09:00,cen,7.20
2022-11-14T01:11:00,cen,8.40
2022-11-14T01:13:00,cen,7.20
2022-11-14T01:15:00,cen,8.40
2022-11-14T01:17:00,cen,10.80
2022-11-14T01:19:00,cen,8.40
2022-11-14T01:21:00,cen,8.40
2022-11-14T01:22:00,cen,3.60
2022-11-14T01:24:00,cen,7.20
2022-11-14T01:26:00,cen,9.60
2022-11-14T01:28:00,cen,7.20
2022-11-14T01:30:00,cen,9.60
2022-11-14T01:31:00,cen,4.80
2022-11-14T01:33:00,cen,8.40
2022-11-14T01:35:00,cen,8.40
2022-11-14T01:37:00,cen,10.80
2022-11-14T01:39:00,cen,10.80
2022-11-14T01:41:00,cen,8.40
2022-11-14T01:43:00,cen,9.59
2022-11-14T01:44:00,cen,3.60
2022-11-14T01:46:00,cen,8.40
2022-11-14T01:48:00,cen,9.60
2022-11-14T01:49:00,cen,4.80
2022-11-14T01:51:00,cen,8.40
2022-11-14T01:53:00,cen,8.40
2022-11-14T01:55:00,cen,9.59
2022-11-14T01:56:00,cen,4.80
2022-11-14T01:58:00,cen,10.80
2022-11-14T02:00:00,cen,7.20
2022-11-14T02:02:00,cen,7.20
2022-11-14T02:04:00,cen,8.40
2022-11-14T02:06:00,cen,8.40
2022-11-14T02:08:00,cen,8.40
2022-11-14T02:10:00,cen,9.60
2022-11-14T02:11:00,cen,4.80
2022-11-14T02:13:00,cen,9.60
2022-11-14T02:15:00,cen,8.40
2022-11-14T02:16:00,cen,3.60
2022-11-14T02:18:00,cen,7.20
2022-11-14T02:20:00,cen,9.60
2022-11-14T02:21:00,cen,3.60
2022-11-14T02:23:00,cen,8.39
2022-11-14T02:25:00,cen,7.20
2022-11-14T02:27:00,cen,8.40
2022-11-14T02:28:00,cen,4.80
2022-11-14T02:30:00,cen,8.40
2022-11-14T02:32:00,cen,8.39
2022-11-14T02:34:00,cen,8.40
2022-11-14T02:35:00,cen,3.60
2022-11-14T02:37:00,cen,7.20
2022-11-14T02:39:00,cen,8.40
2022-11-14T02:41:00,cen,8.40
2022-11-14T02:42:00,cen,3.60
2022-11-14T02:44:00,cen,9.60
2022-11-14T02:46:00,cen,8.40
2022-11-14T02:48:00,cen,8.40
2022-11-14T02:50:00,cen,7.20
2022-11-14T02:52:00,cen,8.40
2022-11-14T02:54:00,cen,8.39
2022-11-14T02:56:00,cen,8.40
2022-11-14T02:57:00,cen,3.60
2022-11-14T02:59:00,cen,7.20
2022-11-14T03:01:00,cen,9.60
2022-11-14T03:03:00,cen,9.59
2022-11-14T03:05:00,cen,8.40
2022-11-14T03:07:00,cen,7.20
2022-11-14T03:09:00,cen,7.20
2022-11-14T03:11:00,cen,9.60
2022-11-14T03:13:00,cen,9.60
2022-11-14T03:15:00,cen,10.80
2022-11-14T03:16:00,cen,3.60
2022-11-14T03:18:00,cen,10.80
2022-11-14T03:20:00,cen,10.80
2022-11-14T03:22:00,cen,9.60
2022-11-14T03:24:00,cen,8.40
2022-11-14T03:25:00,cen,4.80
2022-11-14T03:27:00,cen,8.40
2022-11-14T03:28:00,cen,2.40
2022-11-14T03:30:00,cen,8.40
2022-11-14T03:32:00,cen,8.40
2022-11-14T03:34:00,cen,7.20
2022-11-14T03:36:00,cen,8.40
2022-11-14T03:38:00,cen,9.60
2022-11-14T03:39:00,cen,3.60
2022-11-14T03:41:00,cen,9.60
2022-11-14T03:42:00,cen,4.80
2022-11-14T03:44:00,cen,7.21
2022-11-14T03:46:00,cen,8.39
2022-11-14T03:47:00,cen,3.60
2022-11-14T03:49:00,cen,9.60
2022-11-14T03:50:00,cen,4.80
2022-11-14T03:52:00,cen,8.40
2022-11-14T03:53:00,cen,4.80
2022-11-14T03:55:00,cen,8.40
2022-11-14T03:56:00,cen,6.00
2022-11-14T03:58:00,cen,10.80
2022-11-14T04:00:00,cen,9.60
2022-11-14T04:02:00,cen,8.39
2022-11-14T04:03:00,cen,3.60
2022-11-14T04:05:00,cen,8.40
2022-11-14T04:07:00,cen,14.40
2022-11-14T04:09:00,cen,9.60
2022-11-14T04:10:00,cen,6.00
2022-11-14T04:12:00,cen,26.40
2022-11-14T04:13:00,cen,13.21
2022-11-14T04:15:00,cen,21.60
2022-11-14T04:17:00,cen,20.40
2022-11-14T04:18:00,cen,20.40
2022-11-14T04:19:00,cen,19.20
2022-11-14T04:21:00,cen,10.80
2022-11-14T04:23:00,cen,10.80
2022-11-14T04:24:00,cen,8.39
2022-11-14T04:26:00,cen,13.21
2022-11-14T04:28:00,cen,13.20
2022-11-14T04:29:00,cen,6.00
2022-11-14T04:31:00,cen,16.80
2022-11-14T04:32:00,cen,7.20
2022-11-14T04:34:00,cen,13.20
2022-11-14T04:36:00,cen,12.00
2022-11-14T04:38:00,cen,12.00
2022-11-14T04:40:00,cen,12.00
2022-11-14T04:42:00,cen,15.60
2022-11-14T04:44:00,cen,9.60
2022-11-14T04:46:00,cen,9.60
2022-11-14T04:47:00,cen,4.80
2022-11-14T04:49:00,cen,9.60
2022-11-14T04:51:00,cen,8.40
2022-11-14T04:53:00,cen,10.80
2022-11-14T04:55:00,cen,10.80
2022-11-14T04:57:00,cen,9.60
2022-11-14T04:59:00,cen,8.39
2022-11-14T05:01:00,cen,8.40
2022-11-14T05:02:00,cen,4.80
2022-11-14T05:04:00,cen,9.59
2022-11-14T05:06:00,cen,9.60
2022-11-14T05:08:00,cen,8.40
2022-11-14T05:09:00,cen,4.80
2022-11-14T05:11:00,cen,10.80
2022-11-14T05:13:00,cen,12.00
2022-11-14T05:15:00,cen,10.80
2022-11-14T05:17:00,cen,9.60
2022-11-14T05:19:00,cen,9.59
2022-11-14T05:21:00,cen,9.60
2022-11-14T05:23:00,cen,10.80
2022-11-14T05:25:00,cen,9.59
2022-11-14T05:27:00,cen,10.80
2022-11-14T05:29:00,cen,12.00
2022-11-14T05:31:00,cen,9.60
2022-11-14T05:33:00,cen,9.60
2022-11-14T05:35:00,cen,10.80
2022-11-14T05:37:00,cen,9.60
2022-11-14T05:39:00,cen,10.80
2022-11-14T05:41:00,cen,10.80
2022-11-14T05:43:00,cen,9.60
2022-11-14T05:45:00,cen,10.80
2022-11-14T05:46:00,cen,7.20
2022-11-14T05:48:00,cen,12.00
2022-11-14T05:50:00,cen,10.80
2022-11-14T05:52:00,cen,9.60
2022-11-14T05:54:00,cen,10.80
2022-11-14T05:56:00,cen,8.40
2022-11-14T05:58:00,cen,9.59
2022-11-14T06:00:00,cen,9.60
2022-11-14T06:02:00,cen,10.80
2022-11-14T06:04:00,cen,12.00
2022-11-14T06:05:00,cen,3.60
2022-11-14T06:07:00,cen,10.80
2022-11-14T06:09:00,cen,9.60
2022-11-14T06:11:00,cen,10.80
2022-11-14T06:13:00,cen,10.80
2022-11-14T06:14:00,cen,4.80
2022-11-14T06:16:00,cen,10.80
2022-11-14T06:18:00,cen,12.00
2022-11-14T06:20:00,cen,10.80
2022-11-14T06:21:00,cen,6.00
2022-11-14T06:23:00,cen,12.00
2022-11-14T06:25:00,cen,10.80
2022-11-14T06:27:00,cen,9.60
2022-11-14T06:29:00,cen,10.80
2022-11-14T06:30:00,cen,4.80
2022-11-14T06:32:00,cen,10.80
2022-11-14T06:34:00,cen,9.60
2022-11-14T06:36:00,cen,9.60
2022-11-14T06:37:00,cen,4.80
2022-11-14T06:39:00,cen,10.80
2022-11-14T06:41:00,cen,12.00
2022-11-14T06:43:00,cen,10.80
2022-11-14T06:45:00,cen,9.60
2022-11-14T06:47:00,cen,10.80
2022-11-14T06:49:00,cen,8.40
2022-11-14T06:51:00,cen,9.59
2022-11-14T06:53:00,cen,9.60
2022-11-14T06:55:00,cen,9.60
2022-11-14T06:57:00,cen,9.59
2022-11-14T06:59:00,cen,9.60
2022-11-14T07:01:00,cen,13.20
2022-11-14T07:03:00,cen,10.80
2022-11-14T07:05:00,cen,15.60
2022-11-14T07:06:00,cen,7.20
2022-11-14T07:08:00,cen,14.40
2022-11-14T07:10:00,cen,15.60
2022-11-14T07:11:00,cen,7.20
2022-11-14T07:13:00,cen,15.60
2022-11-14T07:15:00,cen,14.40
2022-11-14T07:17:00,cen,14.40
2022-11-14T07:19:00,cen,15.60
2022-11-14T07:21:00,cen,18.00
2022-11-14T07:23:00,cen,15.59
2022-11-14T07:25:00,cen,15.60
2022-11-14T07:28:00,cen,24.00
2022-11-14T07:30:00,cen,14.40
2022-11-14T07:32:00,cen,24.00
2022-11-14T07:34:00,cen,32.40
2022-11-14T07:36:00,cen,31.20
2022-11-14T07:37:00,cen,7.20
2022-11-14T07:39:00,cen,16.79
2022-11-14T07:41:00,cen,15.60
2022-11-14T07:43:00,cen,15.60
2022-11-14T07:45:00,cen,14.40
2022-11-14T07:47:00,cen,15.60
2022-11-14T07:49:00,cen,15.60
2022-11-14T07:50:00,cen,7.20
2022-11-14T07:52:00,cen,14.40
2022-11-14T07:54:00,cen,15.60
2022-11-14T07:56:00,cen,14.40
2022-11-14T07:58:00,cen,16.80
2022-11-14T08:00:00,cen,15.60
2022-11-14T08:02:00,cen,14.40
2022-11-14T08:04:00,cen,15.60
2022-11-14T08:06:00,cen,20.40
2022-11-14T08:08:00,cen,16.80
2022-11-14T08:10:00,cen,16.80
2022-11-14T08:12:00,cen,18.00
2022-11-14T08:14:00,cen,19.20
2022-11-14T08:16:00,cen,26.40
2022-11-14T08:18:00,cen,20.41
2022-11-14T08:20:00,cen,23.99
2022-11-14T08:21:00,cen,10.80
2022-11-14T08:23:00,cen,25.20
2022-11-14T08:24:00,cen,14.40
2022-11-14T08:26:00,cen,25.20
2022-11-14T08:28:00,cen,25.20
2022-11-14T08:30:00,cen,24.00
2022-11-14T08:32:00,cen,26.40
2022-11-14T08:33:00,cen,13.20
2022-11-14T08:35:00,cen,25.20
2022-11-14T08:37:00,cen,26.40
2022-11-14T08:39:00,cen,25.20
2022-11-14T08:40:00,cen,12.00
2022-11-14T08:42:00,cen,26.40
2022-11-14T08:44:00,cen,25.20
2022-11-14T08:46:00,cen,25.20
2022-11-14T08:49:00,cen,26.40
2022-11-14T08:50:00,cen,26.40
2022-11-14T08:51:00,cen,13.21
2022-11-14T08:53:00,cen,26.40
2022-11-14T08:54:00,cen,14.40
2022-11-14T08:56:00,cen,25.20
2022-11-14T08:58:00,cen,25.20
2022-11-14T09:00:00,cen,43.21
2022-11-14T09:02:00,cen,42.00
2022-11-14T09:03:00,cen,20.40
2022-11-14T09:05:00,cen,26.40
2022-11-14T09:07:00,cen,30.00
2022-11-14T09:09:00,cen,27.60
2022-11-14T09:10:00,cen,15.60
2022-11-14T09:12:00,cen,26.40
2022-11-14T09:14:00,cen,30.00
2022-11-14T09:16:00,cen,28.80
2022-11-14T09:17:00,cen,15.60
2022-11-14T09:19:00,cen,31.19
2022-11-14T09:21:00,cen,31.20
2022-11-14T09:23:00,cen,31.20
2022-11-14T09:25:00,cen,27.60
2022-11-14T09:27:00,cen,27.60
2022-11-14T09:29:00,cen,26.40
2022-11-14T09:31:00,cen,27.60
2022-11-14T09:32:00,cen,12.00
2022-11-14T09:33:00,cen,14.40
2022-11-14T09:35:00,cen,25.20
2022-11-14T09:37:00,cen,28.80
2022-11-14T09:39:00,cen,30.00
2022-11-14T09:41:00,cen,27.60
2022-11-14T09:43:00,cen,26.40
2022-11-14T09:45:00,cen,27.60
2022-11-14T09:46:00,cen,13.20
2022-11-14T09:48:00,cen,30.00
2022-11-14T09:50:00,cen,28.80
2022-11-14T09:52:00,cen,25.20
2022-11-14T09:54:00,cen,22.80
2022-11-14T09:56:00,cen,22.80
2022-11-14T09:58:00,cen,27.60
2022-11-14T10:00:00,cen,25.20
2022-11-14T10:02:00,cen,25.20
2022-11-14T10:04:00,cen,23.99
2022-11-14T10:05:00,cen,12.00
2022-11-14T10:07:00,cen,22.80
2022-11-14T10:08:00,cen,12.00
2022-11-14T10:10:00,cen,22.80
2022-11-14T10:12:00,cen,25.20
2022-11-14T10:14:00,cen,25.20
2022-11-14T10:15:00,cen,10.80
2022-11-14T10:16:00,cen,13.20
2022-11-14T10:18:00,cen,22.80
2022-11-14T10:20:00,cen,24.00
2022-11-14T10:22:00,cen,25.20
2022-11-14T10:24:00,cen,27.60
2022-11-14T10:26:00,cen,27.60
2022-11-14T10:28:00,cen,30.00
2022-11-14T10:30:00,cen,30.00
2022-11-14T10:31:00,cen,19.20
2022-11-14T10:33:00,cen,36.00
2022-11-14T10:35:00,cen,32.40
2022-11-14T10:37:00,cen,33.60
2022-11-14T10:39:00,cen,31.20
2022-11-14T10:40:00,cen,14.40
2022-11-14T10:42:00,cen,30.00
2022-11-14T10:44:00,cen,30.00
2022-11-14T10:46:00,cen,30.00
2022-11-14T10:48:00,cen,28.80
2022-11-14T10:50:00,cen,28.80
2022-11-14T10:52:00,cen,26.40
2022-11-14T10:54:00,cen,27.60
2022-11-14T10:56:00,cen,28.80
2022-11-14T10:58:00,cen,30.00
2022-11-14T11:00:00,cen,28.80
2022-11-14T11:02:00,cen,27.60
2022-11-14T11:04:00,cen,38.40
2022-11-14T11:06:00,cen,28.80
2022-11-14T11:08:00,cen,30.00
2022-11-14T11:09:00,cen,16.79
2022-11-14T11:11:00,cen,28.81
2022-11-14T11:12:00,cen,16.79
2022-11-14T11:14:00,cen,32.40
2022-11-14T11:16:00,cen,30.00
2022-11-14T11:18:00,cen,28.80
2022-11-14T11:20:00,cen,28.80
2022-11-14T11:22:00,cen,28.81
2022-11-14T11:23:00,cen,14.40
2022-11-14T11:25:00,cen,28.80
2022-11-14T11:27:00,cen,28.80
2022-11-14T11:28:00,cen,14.40
2022-11-14T11:31:00,cen,26.40
2022-11-14T11:32:00,cen,26.40
2022-11-14T11:34:00,cen,25.20
2022-11-14T11:35:00,cen,13.20
2022-11-14T11:37:00,cen,26.40
2022-11-14T11:39:00,cen,26.40
2022-11-14T11:40:00,cen,13.20
2022-11-14T11:42:00,cen,25.20
2022-11-14T11:44:00,cen,28.80
2022-11-14T11:46:00,cen,40.80
2022-11-14T11:48:00,cen,42.00
2022-11-14T11:50:00,cen,34.80
2022-11-14T11:52:00,cen,22.80
2022-11-14T11:53:00,cen,15.60
2022-11-14T11:55:00,cen,24.00
2022-11-14T11:57:00,cen,25.20
2022-11-14T11:59:00,cen,25.20
2022-11-14T12:01:00,cen,25.20
2022-11-14T12:03:00,cen,28.80
2022-11-14T12:05:00,cen,26.40
2022-11-14T12:07:00,cen,24.00
2022-11-14T12:09:00,cen,26.40
2022-11-14T12:11:00,cen,32.40
2022-11-14T12:13:00,cen,25.20
2022-11-14T12:15:00,cen,24.00
2022-11-14T12:16:00,cen,10.80
2022-11-14T12:17:00,cen,10.80
2022-11-14T12:19:00,cen,25.20
2022-11-14T12:20:00,cen,16.79
2022-11-14T12:22:00,cen,24.00
2022-11-14T12:24:00,cen,22.80
2022-11-14T12:26:00,cen,22.80
2022-11-14T12:28:00,cen,24.00
2022-11-14T12:30:00,cen,22.80
2022-11-14T12:32:00,cen,22.80
2022-11-14T12:33:00,cen,12.00
2022-11-14T12:35:00,cen,22.80
2022-11-14T12:37:00,cen,22.80
2022-11-14T12:39:00,cen,25.20
2022-11-14T12:41:00,cen,27.60
2022-11-14T12:42:00,cen,12.00
2022-11-14T12:44:00,cen,24.00
2022-11-14T12:46:00,cen,24.00
2022-11-14T12:48:00,cen,27.60
2022-11-14T12:50:00,cen,25.20
2022-11-14T12:52:00,cen,22.80
2022-11-14T12:54:00,cen,24.00
2022-11-14T12:56:00,cen,24.00
2022-11-14T12:58:00,cen,26.40
2022-11-14T13:00:00,cen,22.80
2022-11-14T13:02:00,cen,25.20
2022-11-14T13:04:00,cen,22.80
2022-11-14T13:06:00,cen,25.20
2022-11-14T13:08:00,cen,24.00
2022-11-14T13:10:00,cen,21.60
2022-11-14T13:12:00,cen,26.40
2022-11-14T13:13:00,cen,12.00
2022-11-14T13:14:00,cen,10.80
2022-11-14T13:16:00,cen,23.99
2022-11-14T13:18:00,cen,24.00
2022-11-14T13:20:00,cen,22.80
2022-11-14T13:22:00,cen,24.00
2022-11-14T13:24:00,cen,24.00
2022-11-14T13:26:00,cen,24.00
2022-11-14T13:27:00,cen,12.00
2022-11-14T13:29:00,cen,24.00
2022-11-14T13:31:00,cen,22.80
2022-11-14T13:33:00,cen,25.20
2022-11-14T13:35:00,cen,22.81
2022-11-14T13:36:00,cen,12.00
2022-11-14T13:38:00,cen,23.99
2022-11-14T13:39:00,cen,13.20
2022-11-14T13:41:00,cen,25.21
2022-11-14T13:43:00,cen,23.99
2022-11-14T13:45:00,cen,25.20
2022-11-14T13:47:00,cen,25.21
2022-11-14T13:49:00,cen,23.99
2022-11-14T13:51:00,cen,24.01
2022-11-14T13:53:00,cen,25.20
2022-11-14T13:54:00,cen,12.00
2022-11-14T13:56:00,cen,23.99
2022-11-14T13:57:00,cen,12.01
2022-11-14T13:59:00,cen,23.99
2022-11-14T14:01:00,cen,25.20
2022-11-14T14:03:00,cen,31.20
2022-11-14T14:05:00,cen,40.81
2022-11-14T14:07:00,cen,39.59
2022-11-14T14:08:00,cen,18.00
2022-11-14T14:10:00,cen,23.99
2022-11-14T14:12:00,cen,25.20
2022-11-14T14:14:00,cen,24.01
2022-11-14T14:16:00,cen,25.20
2022-11-14T14:18:00,cen,24.01
2022-11-14T14:19:00,cen,10.80
2022-11-14T14:21:00,cen,22.79
2022-11-14T14:23:00,cen,21.61
2022-11-14T14:24:00,cen,10.80
2022-11-14T14:26:00,cen,21.61
2022-11-14T14:27:00,cen,10.80
2022-11-14T14:29:00,cen,20.41
2022-11-14T14:31:00,cen,20.39
2022-11-14T14:33:00,cen,19.20
2022-11-14T14:35:00,cen,23.99
2022-11-14T14:36:00,cen,12.01
2022-11-14T14:38:00,cen,21.59
2022-11-14T14:40:00,cen,20.41
2022-11-14T14:42:00,cen,22.79
2022-11-14T14:44:00,cen,22.81
2022-11-14T14:46:00,cen,21.59
2022-11-14T14:48:00,cen,20.41
2022-11-14T14:49:00,cen,9.59
2022-11-14T14:51:00,cen,21.61
2022-11-14T14:52:00,cen,10.80
2022-11-14T14:54:00,cen,21.61
2022-11-14T14:56:00,cen,20.39
2022-11-14T14:58:00,cen,21.61
2022-11-14T15:00:00,cen,21.61
2022-11-14T15:02:00,cen,22.79
2022-11-14T15:04:00,cen,21.61
2022-11-14T15:05:00,cen,10.80
2022-11-14T15:06:00,cen,10.80
2022-11-14T15:08:00,cen,21.61
2022-11-14T15:10:00,cen,22.79
2022-11-14T15:11:00,cen,10.80
2022-11-14T15:13:00,cen,24.01
2022-11-14T15:14:00,cen,10.80
2022-11-14T15:16:00,cen,22.81
2022-11-14T15:17:00,cen,10.80
2022-11-14T15:19:00,cen,22.79
2022-11-14T15:20:00,cen,10.81
2022-11-14T15:22:00,cen,22.79
2022-11-14T15:24:00,cen,24.01
2022-11-14T15:26:00,cen,22.79
2022-11-14T15:28:00,cen,22.79
2022-11-14T15:30:00,cen,21.61
2022-11-14T15:32:00,cen,22.81
2022-11-14T15:34:00,cen,22.79
2022-11-14T15:37:00,cen,33.60
2022-11-14T15:39:00,cen,23.99
2022-11-14T15:40:00,cen,12.00
2022-11-14T15:42:00,cen,24.01
2022-11-14T15:43:00,cen,13.20
2022-11-14T15:44:00,cen,14.40
2022-11-14T15:46:00,cen,25.20
2022-11-14T15:48:00,cen,25.21
2022-11-14T15:50:00,cen,22.79
2022-11-14T15:52:00,cen,22.81
2022-11-14T15:53:00,cen,10.80
2022-11-14T15:55:00,cen,21.59
2022-11-14T15:57:00,cen,21.61
2022-11-14T15:59:00,cen,21.59
2022-11-14T16:01:00,cen,20.41
2022-11-14T16:02:00,cen,10.80
2022-11-14T16:04:00,cen,21.61
2022-11-14T16:06:00,cen,20.41
2022-11-14T16:08:00,cen,21.59
2022-11-14T16:10:00,cen,22.81
2022-11-14T16:12:00,cen,20.39
2022-11-14T16:14:00,cen,21.61
2022-11-14T16:16:00,cen,20.39
2022-11-14T16:18:00,cen,19.20
2022-11-14T16:19:00,cen,13.20
2022-11-14T16:21:00,cen,21.61
2022-11-14T16:23:00,cen,19.20
2022-11-14T16:25:00,cen,25.20
2022-11-14T16:27:00,cen,21.59
2022-11-14T16:29:00,cen,27.61
2022-11-14T16:31:00,cen,34.79
2022-11-14T16:33:00,cen,38.41
2022-11-14T16:35:00,cen,32.40
2022-11-14T16:37:00,cen,22.79
2022-11-14T16:38:00,cen,8.41
2022-11-14T16:40:00,cen,16.79
2022-11-14T16:41:00,cen,9.61
2022-11-14T16:43:00,cen,16.80
2022-11-14T16:45:00,cen,17.99
2022-11-14T16:47:00,cen,16.80
2022-11-14T16:49:00,cen,15.60
2022-11-14T16:51:00,cen,16.80
2022-11-14T16:53:00,cen,16.80
2022-11-14T16:55:00,cen,20.41
2022-11-14T16:57:00,cen,15.60
2022-11-14T16:58:00,cen,8.39
2022-11-14T17:00:00,cen,16.80
2022-11-14T17:02:00,cen,16.80
2022-11-14T17:03:00,cen,8.39
2022-11-14T17:05:00,cen,18.00
2022-11-14T17:06:00,cen,8.41
2022-11-14T17:08:00,cen,16.79
2022-11-14T17:10:00,cen,16.80
2022-11-14T17:12:00,cen,18.00
2022-11-14T17:14:00,cen,18.00
2022-11-14T17:16:00,cen,16.80
2022-11-14T17:18:00,cen,16.80
2022-11-14T17:19:00,cen,9.59
2022-11-14T17:20:00,cen,7.21
2022-11-14T17:22:00,cen,16.79
2022-11-14T17:24:00,cen,18.00
2022-11-14T17:26:00,cen,16.80
2022-11-14T17:28:00,cen,18.00
2022-11-14T17:30:00,cen,19.20
2022-11-14T17:32:00,cen,16.79
2022-11-14T17:34:00,cen,16.80
2022-11-14T17:36:00,cen,16.80
2022-11-14T17:38:00,cen,16.80
2022-11-14T17:39:00,cen,8.41
2022-11-14T17:41:00,cen,16.79
2022-11-14T17:43:00,cen,16.80
2022-11-14T17:45:00,cen,15.60
2022-11-14T17:47:00,cen,19.20
2022-11-14T17:48:00,cen,19.20
2022-11-14T17:49:00,cen,16.80
2022-11-14T17:51:00,cen,15.60
2022-11-14T17:52:00,cen,7.19
2022-11-14T17:54:00,cen,15.60
2022-11-14T17:56:00,cen,15.60
2022-11-14T17:58:00,cen,15.60
2022-11-14T18:00:00,cen,15.60
2022-11-14T18:02:00,cen,15.60
2022-11-14T18:03:00,cen,7.21
2022-11-14T18:05:00,cen,16.80
2022-11-14T18:06:00,cen,9.59
2022-11-14T18:08:00,cen,16.80
2022-11-14T18:09:00,cen,7.19
2022-11-14T18:11:00,cen,15.60
2022-11-14T18:13:00,cen,15.60
2022-11-14T18:14:00,cen,8.41
2022-11-14T18:16:00,cen,15.60
2022-11-14T18:17:00,cen,8.39
2022-11-14T18:19:00,cen,15.60
2022-11-14T18:21:00,cen,16.80
2022-11-14T18:23:00,cen,15.60
2022-11-14T18:25:00,cen,15.60
2022-11-14T18:27:00,cen,16.80
2022-11-14T18:29:00,cen,15.60
2022-11-14T18:31:00,cen,15.60
2022-11-14T18:33:00,cen,16.80
2022-11-14T18:35:00,cen,15.59
2022-11-14T18:37:00,cen,16.80
2022-11-14T18:39:00,cen,15.60
2022-11-14T18:40:00,cen,8.41
2022-11-14T18:42:00,cen,16.80
2022-11-14T18:43:00,cen,7.19
2022-11-14T18:45:00,cen,18.00
2022-11-14T18:46:00,cen,8.39
2022-11-14T18:47:00,cen,7.21
2022-11-14T18:49:00,cen,15.60
2022-11-14T18:51:00,cen,14.40
2022-11-14T18:52:00,cen,7.19
2022-11-14T18:54:00,cen,15.60
2022-11-14T18:56:00,cen,14.40
2022-11-14T18:58:00,cen,15.60
2022-11-14T19:00:00,cen,16.80
2022-11-14T19:02:00,cen,15.60
2022-11-14T19:04:00,cen,15.60
2022-11-14T19:06:00,cen,15.60
2022-11-14T19:08:00,cen,16.80
2022-11-14T19:09:00,cen,8.39
2022-11-14T19:11:00,cen,15.60
2022-11-14T19:12:00,cen,7.21
2022-11-14T19:14:00,cen,16.80
2022-11-14T19:16:00,cen,16.80
2022-11-14T19:18:00,cen,14.40
2022-11-14T19:19:00,cen,8.39
2022-11-14T19:21:00,cen,15.60
2022-11-14T19:23:00,cen,15.60
2022-11-14T19:25:00,cen,15.60
2022-11-14T19:27:00,cen,16.80
2022-11-14T19:29:00,cen,19.20
2022-11-14T19:31:00,cen,15.60
2022-11-14T19:33:00,cen,16.80
2022-11-14T19:35:00,cen,15.59
2022-11-14T19:36:00,cen,13.21
2022-11-14T19:38:00,cen,33.59
2022-11-14T19:40:00,cen,32.40
2022-11-14T19:42:00,cen,18.00
2022-11-14T19:44:00,cen,15.60
2022-11-14T19:46:00,cen,15.60
2022-11-14T19:47:00,cen,8.39
2022-11-14T19:49:00,cen,15.60
2022-11-14T19:51:00,cen,18.00
2022-11-14T19:52:00,cen,7.21
2022-11-14T19:54:00,cen,16.80
2022-11-14T19:56:00,cen,15.59
2022-11-14T19:57:00,cen,8.41
2022-11-14T19:59:00,cen,15.60
2022-11-14T20:01:00,cen,15.60
2022-11-14T20:03:00,cen,16.80
2022-11-14T20:04:00,cen,8.39
2022-11-14T20:06:00,cen,18.00
2022-11-14T20:08:00,cen,16.80
2022-11-14T20:09:00,cen,7.19
2022-11-14T20:10:00,cen,7.21
2022-11-14T20:12:00,cen,10.80
2022-11-14T20:14:00,cen,9.61
2022-11-14T20:16:00,cen,10.80
2022-11-14T20:18:00,cen,10.80
2022-11-14T20:20:00,cen,9.59
2022-11-14T20:21:00,cen,4.80
2022-11-14T20:23:00,cen,9.59
2022-11-14T20:25:00,cen,10.81
2022-11-14T20:27:00,cen,10.80
2022-11-14T20:29:00,cen,9.59
2022-11-14T20:31:00,cen,9.61
2022-11-14T20:33:00,cen,9.59
2022-11-14T20:34:00,cen,4.80
2022-11-14T20:36:00,cen,12.00
2022-11-14T20:38:00,cen,10.80
2022-11-14T20:39:00,cen,6.01
2022-11-14T20:41:00,cen,10.80
2022-11-14T20:43:00,cen,10.80
2022-11-14T20:45:00,cen,12.01
2022-11-14T20:47:00,cen,12.00
2022-11-14T20:49:00,cen,9.59
2022-11-14T20:50:00,cen,6.01
2022-11-14T20:52:00,cen,9.59
2022-11-14T20:53:00,cen,3.60
2022-11-14T20:55:00,cen,9.59
2022-11-14T20:57:00,cen,10.81
2022-11-14T20:59:00,cen,9.59
2022-11-14T21:00:00,cen,4.80
2022-11-14T21:02:00,cen,9.59
2022-11-14T21:04:00,cen,12.00
2022-11-14T21:06:00,cen,9.61
2022-11-14T21:07:00,cen,4.79
2022-11-14T21:09:00,cen,9.61
2022-11-14T21:11:00,cen,9.59
2022-11-14T21:13:00,cen,9.59
2022-11-14T21:15:00,cen,10.81
2022-11-14T21:17:00,cen,10.80
2022-11-14T21:18:00,cen,4.80
2022-11-14T21:20:00,cen,12.00
2022-11-14T21:22:00,cen,13.20
2022-11-14T21:24:00,cen,10.80
2022-11-14T21:26:00,cen,10.80
2022-11-14T21:27:00,cen,4.80
2022-11-14T21:29:00,cen,9.59
2022-11-14T21:30:00,cen,6.01
2022-11-14T21:32:00,cen,9.59
2022-11-14T21:34:00,cen,8.41
2022-11-14T21:36:00,cen,9.59
2022-11-14T21:38:00,cen,9.61
2022-11-14T21:40:00,cen,9.59
2022-11-14T21:41:00,cen,6.01
2022-11-14T21:43:00,cen,10.80
2022-11-14T21:45:00,cen,9.59
2022-11-14T21:47:00,cen,8.41
2022-11-14T21:48:00,cen,4.79
2022-11-14T21:50:00,cen,9.61
2022-11-14T21:52:00,cen,9.59
2022-11-14T21:54:00,cen,9.59
2022-11-14T21:56:00,cen,10.81
2022-11-14T21:58:00,cen,9.59
2022-11-14T22:00:00,cen,9.59
2022-11-14T22:02:00,cen,12.01
2022-11-14T22:04:00,cen,9.59
2022-11-14T22:06:00,cen,9.59
2022-11-14T22:08:00,cen,8.41
2022-11-14T22:10:00,cen,9.59
2022-11-14T22:12:00,cen,10.80
2022-11-14T22:14:00,cen,9.61
2022-11-14T22:15:00,cen,3.59
2022-11-14T22:16:00,cen,4.80
2022-11-14T22:18:00,cen,9.61
2022-11-14T22:20:00,cen,10.80
2022-11-14T22:22:00,cen,12.00
2022-11-14T22:24:00,cen,9.59
2022-11-14T22:26:00,cen,10.81
2022-11-14T22:28:00,cen,10.80
2022-11-14T22:30:00,cen,9.59
2022-11-14T22:32:00,cen,12.00
2022-11-14T22:34:00,cen,10.81
2022-11-14T22:36:00,cen,8.39
2022-11-14T22:38:00,cen,8.41
2022-11-14T22:40:00,cen,7.19
2022-11-14T22:42:00,cen,8.41
2022-11-14T22:44:00,cen,9.59
2022-11-14T22:46:00,cen,9.59
2022-11-14T22:48:00,cen,8.41
2022-11-14T22:49:00,cen,3.60
2022-11-14T22:51:00,cen,9.59
2022-11-14T22:53:00,cen,9.59
2022-11-14T22:55:00,cen,9.61
2022-11-14T22:57:00,cen,8.39
2022-11-14T22:59:00,cen,9.59
2022-11-14T23:01:00,cen,10.81
2022-11-14T23:03:00,cen,9.59
2022-11-14T23:05:00,cen,10.80
2022-11-14T23:07:00,cen,9.61
2022-11-14T23:09:00,cen,9.59
2022-11-14T23:11:00,cen,8.39
2022-11-14T23:13:00,cen,21.61
2022-11-14T23:14:00,cen,14.40
2022-11-14T23:16:00,cen,27.60
2022-11-14T23:18:00,cen,12.00
2022-11-14T23:20:00,cen,8.41
2022-11-14T23:22:00,cen,9.59
2022-11-14T23:23:00,cen,3.60
2022-11-14T23:25:00,cen,9.59
2022-11-14T23:26:00,cen,4.80
2022-11-14T23:28:00,cen,8.39
2022-11-14T23:30:00,cen,10.81
2022-11-14T23:32:00,cen,12.00
2022-11-14T23:34:00,cen,10.80
2022-11-14T23:36:00,cen,9.61
2022-11-14T23:38:00,cen,8.39
2022-11-14T23:40:00,cen,8.39
2022-11-14T23:42:00,cen,8.41
2022-11-14T23:43:00,cen,3.60
2022-11-14T23:45:00,cen,9.59
2022-11-14T23:47:00,cen,10.80
2022-11-14T23:48:00,cen,4.80
2022-11-14T23:50:00,cen,9.59
2022-11-14T23:52:00,cen,12.01
2022-11-14T23:54:00,cen,10.80
2022-11-14T23:56:00,cen,9.59
2022-11-14T23:58:00,cen,9.61
